Location: Asheville, NC
(35.6000°N, 82.5500°W)
Time: 17:20:38
(UTC-05:00)

KAITUO 1B - Pass Details

Date: 12 January 2018
Orbit: 500 x 521 km, 97.5° (Epoch: 21 January)

Event Time Altitude Azimuth Distance (km) Brightness Sun altitude
Rises 05:52:54 0° 32° (NNE) 2,607 ? -21.3°
Reaches altitude 10° 05:55:38 10° 54° (NE) 1,713 ? -20.8°
Maximum altitude 05:57:59 16° 94° (E) 1,364 ? -20.3°
Drops below altitude 10° 06:00:20 10° 134° (SE) 1,699 ? -19.9°
Sets 06:03:01 0° 156° (SSE) 2,575 ? -19.3°
